RH
31 35 37 37 41 45 47 52 57 66 73 76 78 82 84 83 83 84 85 84 84 86 86 85 87 95 98 98 97 93 96 95 89 90 91 94 96 95 97 98 98 98 96 95 97 98 97 97 95 92 87 81 78 78 77 76 75 75 72 70 68 66 66 64 61 59 56 52 48 46 43 41 40 39 38 38 40 40 41 42 42 43 43 44 46 48 51 52
30 34 36 36 38 41 44 47 50 55 60 65 69 73 75 76 77 78 80 79 79 83 89 92 92 94 96 95 93 92 93 93 94 95 93 95 97 95 96 96 95 95 93 91 89 87 86 86 86 84 83 80 78 78 79 79 78 76 75 73 70 67 65 62 59 55 51 48 46 44 42 40 41 40 38 38 38 37 37 38 37 37 37 37 37 36 37 38
28 30 32 32 35 39 41 42 42 44 45 47 48 50 51 52 55 58 61 62 62 66 71 76 77 77 79 78 77 75 74 76 79 83 82 82 82 83 84 83 81 80 80 77 74 72 70 71 73 73 74 73 74 75 72 69 64 61 60 57 55 55 53 52 49 47 44 41 41 41 38 38 40 39 36 36 37 37 37 38 38 37 36 37 37 36 36 36
25 25 26 28 32 35 37 39 38 39 39 38 36 35 34 33 36 39 41 45 48 52 54 56 58 59 61 61 61 59 58 58 59 60 60 60 61 62 64 64 63 61 59 57 54 54 53 52 53 53 54 52 52 54 52 51 49 44 44 43 43 43 44 46 45 43 42 39 39 41 38 38 40 38 38 37 38 40 40 41 40 37 37 38 36 35 35 35
23 21 22 23 27 31 34 36 36 38 38 37 35 32 30 27 26 27 29 33 35 39 40 40 42 44 47 51 53 54 54 53 52 51 52 52 51 51 52 54 56 56 55 53 51 50 48 47 47 47 48 47 46 48 49 50 48 43 45 46 47 45 45 48 48 45 45 43 42 43 40 39 38 35 35 34 32 33 34 33 31 27 30 30 25 26 27 26
22 20 20 18 21 23 27 32 33 36 37 36 35 32 29 26 24 23 23 25 27 28 28 27 27 28 30 32 35 36 38 41 42 43 43 43 43 44 45 46 49 52 54 54 54 53 53 52 51 51 51 50 49 51 53 54 51 48 49 51 50 47 46 46 44 41 39 36 34 33 30 28 27 25 24 22 20 21 20 19 18 15 18 18 15 15 16 16
24 21 18 16 16 16 19 23 26 31 34 34 32 31 28 26 26 25 25 25 26 26 26 25 25 25 25 26 27 27 29 31 33 34 35 37 38 40 41 42 43 44 45 46 48 49 50 50 50 51 51 51 49 49 50 48 46 42 40 39 36 33 32 30 29 27 25 24 23 22 20 19 18 16 15 13 12 12 10 10 10 8 9 9 8 8 8 9
27 22 19 16 14 13 15 17 21 27 32 32 28 28 27 27 29 29 29 28 28 28 28 29 28 29 29 29 30 30 32 34 36 36 37 38 40 42 43 44 45 45 46 46 47 47 48 48 46 45 43 42 38 36 34 30 29 27 25 25 24 22 22 21 20 20 19 18 16 14 13 11 10 9 8 7 7 8 6 6 6 6 6 6 6 6 6 6
32 27 22 18 15 12 13 14 20 27 33 33 29 27 27 29 31 31 31 29 28 28 27 28 27 28 27 27 28 28 31 33 34 34 34 35 37 39 40 41 41 41 41 39 38 36 34 33 30 29 27 26 25 24 23 21 20 20 19 19 18 17 16 15 13 12 11 10 9 8 7 6 6 5 6 6 6 6 5 5 5 5 5 5 5 5 5 5
40 34 27 20 15 12 12 13 19 28 34 35 32 29 28 30 32 32 31 29 28 26 26 26 25 26 25 24 24 24 26 27 26 25 25 26 27 27 27 26 26 25 25 24 23 23 22 22 21 21 20 21 22 21 20 18 15 14 13 11 11 10 9 8 7 7 7 6 6 5 5 5 5 4 5 5 5 5 5 5 5 5 5 5 5 5 5 5
49 41 32 22 16 13 12 13 21 30 34 35 34 32 31 32 32 31 30 28 27 25 25 25 24 23 21 20 18 18 20 20 19 19 18 18 18 18 17 17 17 17 18 18 19 19 19 19 18 17 17 18 18 16 13 11 9 8 7 7 6 6 6 5 5 6 5 5 5 4 4 4 5 5 5 5 6 6 6 5 6 6 6 5 6 6 6 6
60 48 35 23 16 14 13 18 27 33 35 36 34 34 33 33 32 30 29 27 26 25 23 22 20 18 17 16 15 15 16 16 16 16 16 16 16 15 15 16 16 16 17 16 15 14 12 11 10 10 10 11 10 9 8 7 6 6 5 5 5 5 5 5 5 5 5 5 5 5 5 5 5 5 5 6 7 7 6 6 6 6 6 6 6 6 6 6
72 57 38 23 16 16 20 27 35 37 37 37 35 35 33 32 30 28 27 26 25 22 20 18 16 15 15 15 14 14 15 15 15 15 14 13 12 11 11 11 11 12 11 9 8 7 6 6 6 6 6 6 6 6 6 5 5 5 5 5 5 5 5 5 6 6 6 6 6 6 5 6 6 6 6 6 6 6 6 6 5 5 5 5 5 5 5 4
81 68 44 23 19 24 31 37 40 39 38 36 35 33 31 30 29 28 26 23 20 17 16 15 14 14 13 13 12 12 13 13 12 11 10 8 7 6 6 6 6 6 6 6 5 5 5 5 5 5 5 5 5 5 5 5 5 5 6 6 6 6 6 7 7 7 7 7 7 7 6 6 6 5 5 5 5 5 4 4 4 4 4 3 3 3 3 3
82 77 50 23 23 34 42 45 42 39 37 34 32 30 30 29 27 25 21 18 15 14 14 13 12 11 9 8 8 9 9 9 8 7 6 5 5 5 5 5 5 5 5 5 5 5 5 5 5 5 5 6 6 6 6 7 7 7 7 7 7 7 7 7 7 7 7 7 6 5 5 5 5 4 4 4 3 3 3 3 3 3 3 3 3 2 2 3
81 79 54 25 28 43 50 47 41 37 34 32 31 30 29 27 23 19 16 14 13 12 10 9 8 7 6 6 6 7 6 6 6 5 5 5 5 5 5 5 5 6 5 6 6 6 6 6 6 7 7 7 7 7 7 8 8 8 8 8 8 7 7 7 7 7 6 6 5 5 5 4 4 4 4 4 3 3 3 3 3 3 3 3 3 3 3 3
79 80 55 27 32 49 51 44 37 34 32 31 30 28 25 20 17 14 12 10 8 7 6 6 6 5 5 6 5 5 5 5 5 5 5 5 6 6 6 6 6 6 6 6 6 6 7 7 7 7 8 8 8 8 8 8 8 8 8 8 8 7 7 7 6 6 6 5 5 5 5 5 4 5 5 5 4 4 4 4 4 4 4 4 4 4 4 4
78 79 53 26 35 50 48 40 35 32 31 30 27 22 18 15 13 11 8 6 5 6 5 5 5 5 6 5 5 5 5 5 5 6 6 6 6 6 6 6 6 7 7 7 7 8 8 8 8 8 9 9 9 9 9 9 9 8 8 8 8 7 7 7 7 7 6 7 7 6 7 6 5 5 6 6 5 5 5 5 6 5 6 6 6 6 6 6
78 77 47 26 39 49 45 38 34 32 29 25 20 16 14 11 9 7 5 5 5 6 5 5 6 5 6 5 5 5 5 6 6 6 6 6 6 6 7 7 7 8 8 8 9 9 9 9 10 9 10 10 10 10 9 9 9 9 9 8 8 8 8 8 8 8 8 8 8 8 8 8 7 6 7 7 7 7 7 7 8 8 8 8 8 8 8 8
79 72 39 27 42 47 42 37 34 30 23 18 16 13 10 7 6 5 5 6 5 5 5 5 6 6 6 6 6 5 6 6 6 6 6 6 7 7 8 8 8 9 9 9 10 10 10 10 10 10 10 10 10 10 10 10 10 10 10 10 10 10 10 11 10 10 10 10 10 10 9 9 8 8 9 9 9 9 9 10 10 10 10 10 10 9 9 9
80 62 31 31 44 44 41 37 31 23 17 15 12 8 6 5 5 6 6 5 5 5 6 6 6 6 6 5 5 6 6 6 6 7 7 7 7 8 8 8 9 10 10 10 10 11 11 11 11 11 11 11 11 11 11 11 11 12 12 12 12 12 12 12 12 12 12 11 11 11 10 11 11 11 11 11 10 11 10 10 10 10 10 10 10 9 9 9
74 47 27 36 44 43 40 33 24 17 14 11 7 5 6 6 6 6 5 5 5 6 6 6 6 6 6 5 6 6 6 7 7 7 7 7 8 8 9 9 9 10 11 11 11 11 11 12 12 12 12 12 12 12 12 13 13 14 14 14 14 14 14 13 13 13 13 12 12 12 12 12 13 12 13 11 9 9 8 7 8 8 8 8 8 8 8 8
63 35 29 40 43 42 35 25 17 13 10 7 5 6 6 6 6 5 5 5 5 6 7 6 6 6 5 6 6 6 7 7 7 8 8 8 9 9 9 10 10 11 11 11 11 12 12 12 13 13 13 13 13 14 14 14 14 15 15 14 15 14 14 14 13 13 13 12 12 11 10 11 12 12 12 10 8 7 6 5 6 6 7 7 7 7 8 8
49 30 34 42 42 37 26 17 14 10 7 5 6 6 6 5 5 5 6 6 6 7 6 6 6 6 6 7 7 7 8 8 8 9 9 9 10 10 10 11 11 11 12 12 12 12 12 13 13 12 13 13 12 12 13 13 13 14 14 13 13 13 13 12 11 11 11 10 10 9 7 8 11 11 11 10 9 8 6 6 6 6 7 7 7 7 8 9
38 31 39 42 37 28 18 13 10 7 5 6 6 6 5 5 6 7 7 6 7 7 6 6 6 6 7 7 7 8 8 8 9 9 9 9 9 9 10 10 10 11 11 11 11 11 11 10 10 10 10 9 9 10 10 11 10 11 12 11 11 11 10 10 9 8 8 8 9 8 6 6 9 10 10 11 10 10 8 8 8 8 9 9 9 9 10 11
31 35 41 37 28 19 13 10 6 5 6 6 6 5 5 6 6 7 7 6 7 6 6 6 6 7 7 8 8 8 8 9 8 8 8 8 7 7 8 8 9 9 9 9 8 9 9 8 8 8 8 8 9 9 10 10 10 10 10 10 9 9 9 9 9 8 8 8 10 10 8 7 8 10 11 11 11 11 10 10 10 11 11 12 12 13 14 15
33 41 38 27 18 14 11 7 5 6 6 5 5 5 6 7 7 7 7 6 6 6 6 6 7 8 8 8 8 8 9 8 8 8 8 7 7 7 7 8 8 8 8 8 8 8 8 8 8 8 9 9 10 11 11 11 11 11 11 11 10 10 11 11 11 11 11 11 13 13 13 11 10 12 14 13 13 13 13 13 13 14 15 16 17 18 19 19
40 40 29 18 14 11 7 5 6 6 6 5 5 6 7 7 7 7 7 6 6 6 7 7 8 8 8 9 9 9 9 9 9 9 9 9 9 9 10 10 10 10 10 10 11 11 11 11 12 12 12 13 14 15 15 15 15 15 15 14 14 14 14 14 14 14 14 13 15 16 15 14 14 16 16 16 17 17 17 17 18 20 20 21 22 22 22 21
42 31 19 15 12 8 5 6 7 6 5 5 5 7 7 7 7 7 6 6 6 7 7 8 9 9 9 9 9 10 10 10 11 11 11 11 11 12 12 12 13 13 13 13 14 14 14 15 15 15 16 16 17 17 17 18 18 18 18 18 19 18 18 19 18 19 19 18 20 21 20 18 19 22 22 21 22 21 21 22 24 24 23 23 24 24 24 25
35 21 15 12 8 5 6 7 6 5 5 5 6 7 8 7 7 6 6 6 7 8 8 9 9 10 10 10 11 11 11 12 12 12 13 13 13 14 14 14 15 15 15 15 16 16 16 17 17 17 18 18 19 18 19 19 19 19 19 19 20 20 20 21 21 21 21 21 21 22 22 20 21 24 27 27 27 24 22 24 26 26 25 23 24 25 27 29
24 15 13 9 5 6 7 6 5 5 5 6 7 8 8 7 7 7 7 7 7 8 9 9 10 11 11 12 12 12 13 14 14 15 15 15 16 17 17 17 17 17 18 18 18 18 18 19 19 20 20 21 21 21 21 21 22 23 22 22 23 23 22 22 21 20 20 20 20 19 20 19 19 22 25 28 30 27 24 24 25 24 23 23 25 27 29 32
17 13 10 6 6 7 7 6 5 5 5 6 7 8 8 7 7 7 7 8 8 9 10 11 11 12 12 13 14 14 15 15 16 17 17 17 19 20 19 19 19 19 19 19 19 20 21 22 22 22 23 23 23 24 24 25 26 26 26 26 26 25 24 23 24 24 24 25 25 25 24 22 23 26 26 29 31 26 22 21 20 20 22 26 29 29 31 35
14 11 7 6 7 7 6 5 5 5 6 7 8 8 8 7 7 7 8 8 9 10 11 12 12 13 14 14 15 15 16 17 18 18 19 19 21 22 21 20 21 21 20 21 21 21 22 22 23 24 24 25 25 25 26 27 27 29 30 29 29 31 29 27 27 26 27 29 28 28 27 24 25 31 33 32 30 26 23 21 22 22 25 27 28 29 29 31
12 8 6 7 7 6 5 5 5 6 7 8 8 8 8 8 7 7 8 9 10 11 12 13 14 15 16 16 17 16 17 19 19 19 21 21 23 25 23 22 22 22 22 24 23 24 24 23 24 24 25 27 27 27 27 27 28 30 31 30 34 38 35 31 31 31 30 30 29 30 30 27 27 33 38 35 29 28 26 26 28 27 26 25 24 25 26 27
9 6 7 8 6 5 5 5 6 7 8 8 8 9 8 8 8 8 9 10 11 13 13 15 15 16 17 17 17 17 18 20 21 22 22 22 23 25 24 24 24 23 24 25 24 25 27 28 26 25 26 28 29 30 31 31 31 31 31 33 36 39 38 35 35 36 35 30 28 30 30 30 30 33 41 41 32 31 32 33 37 35 30 28 28 29 30 30
7 6 8 7 5 5 4 5 6 7 8 8 9 9 8 8 8 9 11 11 13 14 15 16 16 17 18 18 18 19 20 21 22 22 23 23 24 24 24 24 25 25 25 26 26 25 27 30 30 29 29 29 31 33 34 36 35 33 34 36 36 38 40 38 35 36 38 33 28 28 27 30 32 33 40 42 33 31 38 43 45 43 38 36 37 37 35 34
7 8 7 6 5 5 5 6 7 7 8 9 9 8 8 9 9 10 12 13 14 15 16 17 17 18 19 19 20 20 21 23 23 23 24 25 26 26 25 25 26 27 27 28 29 28 26 29 33 35 34 32 33 34 37 40 39 37 39 38 38 41 41 41 38 36 39 35 27 27 28 32 37 38 40 42 36 32 39 44 45 44 43 41 40 39 36 36
8 8 7 5 5 5 5 6 7 8 9 9 9 8 8 9 10 11 13 14 15 17 17 18 18 19 20 21 22 23 24 26 25 25 26 26 27 28 27 28 29 28 29 30 30 30 29 28 31 36 39 37 35 37 41 43 41 41 43 43 44 45 44 45 43 40 43 41 32 30 31 33 41 44 39 38 38 35 36 39 39 40 41 40 38 37 36 36
9 8 6 5 5 5 6 6 7 8 9 10 9 9 9 9 11 12 14 15 17 18 18 19 19 20 22 22 24 26 26 26 26 26 27 26 27 27 29 32 32 30 32 33 32 32 33 31 30 33 38 39 39 42 43 42 44 46 46 47 50 49 48 48 47 47 49 45 38 34 32 31 38 45 43 41 39 38 37 37 37 40 41 41 39 38 38 38
9 8 7 6 5 6 6 7 8 9 10 10 9 9 9 11 12 13 15 16 17 18 19 19 20 22 24 25 26 28 28 27 27 26 27 27 28 28 29 34 34 32 33 35 37 36 35 35 33 33 37 40 40 43 43 44 49 48 46 50 51 51 52 50 49 52 53 50 45 39 34 29 33 44 51 50 47 46 47 46 45 45 43 41 40 40 40 40
10 8 6 6 6 6 7 8 9 9 10 10 9 10 10 11 13 14 17 17 18 20 20 20 22 24 26 27 27 28 28 28 28 28 27 28 30 29 29 33 36 34 34 37 41 41 38 37 35 34 38 40 38 41 44 49 52 49 48 52 51 51 55 55 52 51 54 54 48 42 36 25 29 47 55 52 51 54 58 58 56 51 47 45 44 43 43 42
9 8 6 6 6 7 8 9 10 10 11 10 9 10 11 13 14 16 18 18 19 20 21 22 24 25 28 29 29 29 29 28 28 29 29 29 31 30 29 32 35 35 34 37 41 43 41 37 35 35 37 39 40 41 45 53 57 53 51 53 52 50 52 59 58 52 54 53 46 49 42 22 28 52 55 49 51 55 61 64 59 54 52 53 51 49 49 49
8 7 6 6 7 8 9 10 10 10 11 10 10 11 12 14 15 17 19 19 20 21 22 24 26 28 30 31 30 31 32 30 29 29 30 30 31 32 30 30 33 34 34 35 37 40 40 38 36 34 34 38 40 40 44 53 58 56 54 58 59 55 54 58 59 60 56 44 46 62 47 20 34 59 57 52 55 61 66 64 55 54 56 58 59 59 58 57
7 7 7 7 8 9 9 10 11 11 11 11 10 11 13 15 17 18 20 20 21 22 24 25 28 30 31 33 32 32 33 33 31 30 29 29 30 31 29 29 30 30 32 34 34 36 40 42 39 35 36 38 36 37 43 49 53 55 58 64 67 67 68 64 65 69 55 36 55 76 48 22 43 63 58 56 63 69 72 65 59 61 61 62 66 68 66 63
7 7 8 8 9 10 11 11 11 12 11 11 11 12 13 15 17 20 21 22 23 24 25 27 30 31 32 34 33 33 34 35 34 31 30 29 28 27 27 28 27 27 30 31 30 32 37 42 41 39 42 41 36 40 45 46 49 52 55 62 65 67 69 70 74 74 54 43 61 66 40 27 43 55 56 63 73 76 72 67 68 69 66 66 69 70 70 69
8 8 8 9 10 11 11 12 12 12 12 11 12 13 14 16 18 20 22 23 24 25 27 28 30 33 35 34 33 34 35 37 37 34 30 27 24 23 24 26 25 25 28 29 28 29 31 32 36 40 41 38 38 42 44 44 45 46 47 53 56 55 57 64 71 63 54 61 59 42 36 37 35 38 49 68 84 80 70 71 77 77 75 76 76 73 72 73
8 9 10 11 11 12 12 12 12 12 12 12 13 13 15 17 20 22 23 24 25 26 28 29 31 35 36 34 34 34 34 37 38 35 30 26 22 20 21 21 22 23 26 27 27 27 25 24 29 34 33 33 36 38 39 39 38 36 38 41 42 44 45 49 53 49 56 71 56 34 44 49 34 33 48 70 83 76 71 80 86 85 86 86 84 82 80 84
9 10 11 12 12 12 13 13 13 13 13 13 13 15 17 18 20 23 24 25 26 28 30 31 33 36 36 35 35 35 35 37 36 33 28 24 20 18 18 18 20 21 23 25 26 27 25 22 24 28 28 28 32 33 33 33 31 29 31 30 31 35 36 35 39 43 55 64 49 39 51 52 43 51 64 74 78 72 74 85 88 90 94 93 92 90 90 93
11 12 12 12 13 13 13 14 14 13 13 13 14 16 18 19 21 24 25 26 27 29 31 31 33 36 35 35 36 35 36 37 34 30 26 22 19 17 17 17 18 19 21 23 24 27 28 23 23 27 26 24 28 31 30 29 27 26 26 26 26 27 28 30 32 36 44 49 48 52 59 52 50 66 76 74 72 75 80 86 90 95 97 95 94 92 92 90
12 13 13 14 14 14 14 14 14 14 14 15 16 17 18 19 22 24 25 26 27 29 30 31 33 34 35 36 36 36 37 35 32 29 25 22 19 18 17 17 17 19 20 21 22 26 28 25 24 28 27 23 25 28 28 26 26 25 25 25 25 24 25 27 27 30 39 47 52 59 62 54 54 68 75 71 73 78 82 85 92 96 97 96 95 95 95 89
14 14 15 15 15 15 15 15 15 15 15 16 16 17 18 20 22 23 24 26 27 29 30 31 32 33 34 35 36 36 36 33 31 28 25 22 21 19 18 17 17 19 19 21 22 24 27 27 27 31 29 25 25 27 27 26 26 26 25 25 26 26 25 25 25 29 39 49 54 59 61 59 62 69 72 72 77 81 83 90 97 99 99 100 101 102 98 91
15 15 15 16 16 16 16 16 16 16 16 17 17 18 18 19 21 22 23 25 27 28 29 30 31 32 33 35 36 36 35 33 32 29 26 24 22 20 19 17 18 19 20 21 23 24 26 28 29 33 32 28 27 28 27 27 27 27 27 27 28 27 25 25 25 30 41 54 60 62 63 65 68 72 73 74 79 84 91 98 102 102 102 101 100 100 97 94
Wind_Speed
6 6 6 5 5 4 4 3 4 4 5 6 7 8 9 10 11 11 12 13 13 13 13 13 13 14 18 20 21 22 21 20 20 21 22 23 24 24 23 23 22 22 22 22 22 21 20 20 19 19 19 18 19 19 20 20 20 20 20 20 22 22 23 24 23 24 25 23 24 26 26 26 27 28 28 29 29 29 30 30 31 31 31 32 33 35 35 36
7 7 7 6 6 5 4 3 2 3 3 4 4 3 3 2 2 3 4 5 5 5 6 7 8 11 14 16 16 15 14 14 15 17 18 19 19 20 20 20 18 17 17 17 18 17 16 16 15 16 17 17 18 19 19 20 20 20 22 23 23 22 23 26 25 26 27 26 26 28 29 29 29 30 31 31 30 31 32 31 32 32 33 34 34 35 35 36
7 7 7 7 6 6 5 4 3 2 2 2 3 3 3 3 2 2 2 1 1 1 1 1 2 4 5 7 7 8 7 6 7 8 9 10 10 11 12 13 13 13 13 13 13 14 14 14 15 16 17 18 18 19 20 20 22 22 23 25 24 24 26 27 28 28 30 29 29 29 31 31 30 32 33 33 32 32 33 32 33 34 35 35 36 37 37 38
7 7 7 7 7 6 6 5 3 2 2 1 1 2 1 1 0 0 0 0 0 1 0 1 1 2 2 2 3 4 5 5 6 6 7 8 9 9 10 11 12 13 14 14 15 15 16 17 18 19 20 21 20 21 22 22 25 24 24 26 25 26 27 28 30 30 31 31 30 30 32 31 32 33 34 34 34 34 34 33 35 36 35 35 37 37 38 38
6 6 6 6 6 6 6 5 4 3 3 3 2 1 0 1 2 3 3 3 3 3 4 4 4 4 4 4 5 5 6 7 8 8 9 10 11 11 12 13 14 15 16 17 17 18 19 19 20 21 21 23 22 22 23 23 26 26 24 25 26 28 28 27 30 31 31 32 31 31 32 32 33 34 33 35 35 34 34 34 35 36 34 36 37 37 37 38
4 4 4 5 6 6 6 5 5 5 5 4 3 1 0 1 2 3 4 4 4 5 5 6 6 6 7 7 7 8 9 9 10 10 11 11 12 13 14 15 15 16 17 18 18 19 20 20 21 22 22 23 23 23 23 24 26 27 25 24 27 29 28 28 29 30 31 31 31 30 31 31 32 32 32 33 33 33 33 34 35 35 35 36 37 37 37 38
4 2 2 4 5 5 6 6 5 6 6 4 3 2 0 1 1 2 2 3 3 3 4 5 6 7 8 8 8 9 10 10 11 12 12 13 13 14 15 15 16 17 17 18 19 19 20 21 22 23 23 24 24 23 24 25 26 27 25 23 27 28 27 27 27 28 29 29 30 30 31 31 32 32 32 33 33 34 34 34 35 35 35 36 37 37 38 38
5 3 1 1 2 4 5 5 6 6 5 3 2 1 1 1 2 2 3 3 4 4 5 6 7 8 9 9 10 11 11 12 13 14 14 14 15 15 16 16 17 18 19 20 20 21 21 22 23 23 24 23 23 23 23 25 24 24 24 23 25 26 26 27 27 28 29 30 31 31 32 32 33 33 33 34 33 34 35 35 36 36 36 37 38 38 39 39
7 6 4 3 2 2 3 5 6 6 4 2 2 1 2 3 4 4 5 5 6 7 7 8 9 10 11 11 12 13 14 14 15 17 17 17 17 18 18 18 19 19 19 20 20 21 20 20 21 21 21 20 20 21 22 24 23 22 25 25 26 27 27 28 28 29 30 31 32 32 33 32 34 34 33 34 34 36 37 37 38 38 38 39 39 40 40 41
9 8 7 5 3 2 3 5 5 4 3 1 2 2 3 4 5 6 7 7 8 8 9 10 11 11 12 12 13 14 14 15 16 17 18 18 19 18 18 18 18 18 18 18 18 18 18 19 20 20 21 20 20 22 23 25 25 25 26 26 26 27 27 28 28 29 30 31 33 34 34 34 35 35 34 35 35 37 38 38 39 39 40 40 40 41 41 41
10 9 8 6 4 2 3 5 4 3 2 2 2 3 4 5 6 7 8 9 9 10 10 11 12 12 13 13 13 13 13 14 13 14 14 15 15 15 15 16 16 16 16 16 17 18 19 20 21 21 22 22 22 24 24 24 25 26 26 26 27 27 28 29 29 31 32 33 34 35 35 35 35 36 36 36 35 36 38 39 40 40 41 41 41 41 41 42
10 10 10 7 4 1 3 3 2 2 2 3 3 4 5 6 7 8 9 10 10 11 12 12 13 13 13 12 12 12 12 12 11 11 11 12 13 13 14 14 15 16 16 16 17 18 19 20 21 21 22 22 23 24 24 25 26 27 28 28 28 29 30 30 31 32 33 34 34 36 36 35 35 36 37 36 35 37 39 40 40 41 41 41 41 41 42 43
11 11 11 8 4 1 1 1 1 1 2 3 4 5 6 7 8 9 10 11 11 12 12 12 12 12 12 11 11 12 12 11 11 12 12 12 12 13 13 14 14 15 15 16 17 18 19 20 21 22 22 23 24 25 26 27 28 28 29 29 30 31 30 30 30 32 33 33 34 35 36 35 35 35 35 34 35 37 39 39 39 40 40 40 41 41 42 43
11 12 12 9 4 1 1 1 1 1 2 3 4 5 6 8 9 10 10 11 11 11 11 11 11 11 11 11 11 12 12 12 12 12 12 12 12 12 13 14 15 16 16 18 19 20 21 21 22 23 24 24 25 26 27 28 28 29 29 30 31 32 31 29 29 31 32 32 34 35 35 34 34 34 33 34 35 36 37 38 38 38 39 40 40 41 41 42
10 12 13 9 4 2 2 2 2 2 3 4 5 6 7 9 10 10 10 10 10 9 10 10 11 11 12 12 12 11 11 11 12 12 12 13 14 15 16 16 17 18 19 20 21 22 23 23 24 24 25 26 27 27 28 28 28 29 30 30 30 32 32 30 29 30 31 32 34 35 35 34 33 32 33 34 35 36 37 36 36 37 38 38 38 37 38 38
10 12 12 9 4 3 3 3 3 3 4 5 6 7 9 9 9 9 8 8 8 9 9 10 10 11 10 10 10 10 10 10 11 12 14 15 17 18 19 19 20 20 21 22 23 24 25 25 25 26 27 27 27 28 29 29 29 29 30 29 30 32 32 31 31 29 29 32 33 34 34 33 33 33 33 33 34 35 35 35 34 34 35 35 34 34 34 35
10 12 12 9 5 4 4 4 4 4 5 6 7 8 9 8 7 7 7 8 8 9 9 8 8 8 8 9 9 10 11 12 13 14 15 17 19 20 21 21 22 23 24 24 25 25 26 26 27 27 27 27 27 28 29 29 29 30 29 27 28 31 32 33 33 30 30 32 33 33 33 31 31 34 34 32 33 34 33 33 33 33 33 33 33 33 33 34
11 12 12 8 4 4 4 5 5 6 6 7 7 7 7 6 6 6 7 8 7 7 6 7 8 9 10 10 12 13 14 15 16 17 18 19 20 21 22 23 24 24 25 25 26 26 26 26 26 26 26 26 26 27 28 28 29 31 31 29 28 29 31 32 32 31 31 32 32 32 33 30 29 33 35 33 32 33 32 33 33 33 33 33 33 34 34 34
12 13 12 8 4 4 5 6 6 7 7 7 6 5 5 6 6 6 6 5 4 5 6 8 10 12 12 12 14 16 16 17 18 19 20 21 22 23 23 24 24 25 25 25 25 25 25 25 24 25 25 24 25 26 27 27 28 29 31 31 30 30 31 31 31 32 33 32 31 31 32 30 28 31 34 34 32 32 33 34 34 34 34 34 34 34 35 35
13 14 11 7 5 5 5 7 7 7 6 5 4 5 6 6 6 4 3 3 5 7 8 10 12 14 14 14 16 17 17 18 20 21 21 22 23 24 24 24 24 24 24 24 24 24 24 24 23 24 24 24 25 26 27 28 28 29 30 31 31 31 31 30 30 31 34 33 31 32 31 28 28 29 32 36 34 31 33 35 35 35 36 35 35 35 36 35
14 13 10 6 5 5 6 8 8 6 4 4 4 5 5 4 3 3 4 5 6 9 10 11 13 15 15 15 16 17 18 19 21 22 22 23 24 24 24 24 23 23 23 23 23 23 23 23 23 24 25 25 26 26 27 28 28 29 29 30 30 31 31 30 30 30 33 33 31 32 31 27 29 30 31 36 36 33 34 34 34 34 35 35 34 34 34 34
14 12 8 5 5 6 8 8 6 4 3 3 4 4 3 2 3 4 5 6 7 10 11 12 14 15 15 16 17 18 19 20 21 22 23 23 24 24 24 23 23 22 22 22 22 22 22 22 23 24 25 26 27 27 28 28 28 29 29 29 30 30 30 30 29 29 31 33 31 32 31 28 29 29 30 34 35 33 33 32 32 31 31 32 32 32 32 32
14 11 7 5 6 7 8 6 5 3 3 3 3 2 2 3 4 5 6 6 8 11 12 13 15 15 16 17 17 18 20 20 22 23 23 23 23 24 23 23 23 22 22 22 22 22 22 22 23 25 25 26 27 27 28 28 28 29 29 29 29 29 30 29 28 28 29 30 30 31 29 25 25 26 27 31 32 33 32 30 31 30 30 31 31 31 31 31
14 10 6 6 6 8 6 4 4 4 4 2 1 2 3 4 5 6 7 7 10 12 13 14 15 15 16 16 17 18 19 20 21 22 23 23 23 23 23 22 22 22 22 22 22 23 23 23 24 24 25 25 26 26 26 26 25 25 26 27 26 27 27 27 27 26 26 27 26 28 26 20 20 22 23 27 31 35 36 32 31 31 31 31 31 31 32 32
12 8 6 6 7 6 5 4 4 4 3 0 2 2 3 3 4 6 7 9 11 12 13 14 14 15 15 16 17 18 20 20 21 22 22 22 22 22 22 21 21 21 21 21 21 21 22 22 22 22 22 22 22 22 22 22 22 21 22 23 23 24 24 25 26 24 24 24 23 26 24 15 13 17 20 24 30 36 39 37 35 33 32 32 32 32 32 33
10 7 6 6 5 4 4 4 4 3 1 2 2 2 2 3 5 7 8 10 12 13 13 14 14 15 15 17 18 18 19 20 20 21 21 21 21 21 20 20 20 20 19 19 19 19 19 19 19 19 19 19 19 19 20 21 21 21 21 22 22 23 23 24 25 24 24 23 22 25 27 20 14 17 22 26 31 36 39 40 39 37 35 34 33 33 33 34
8 7 7 5 4 4 4 4 3 2 2 2 1 1 2 3 6 9 10 11 12 12 13 14 14 15 16 17 18 18 19 19 20 20 20 20 20 19 19 19 18 18 18 18 17 17 18 18 18 18 18 19 19 20 21 22 22 22 22 23 23 23 24 24 25 26 26 25 24 25 29 29 22 21 27 30 32 37 39 40 39 38 36 35 34 34 34 34
8 7 6 4 3 4 4 3 2 3 3 2 1 2 3 5 8 10 11 11 11 12 13 14 14 15 16 17 18 18 19 19 20 20 20 20 19 19 19 18 18 18 18 18 17 17 18 18 18 18 19 20 20 21 22 22 22 23 23 23 24 24 25 26 26 28 28 27 26 26 29 32 28 25 31 32 32 36 38 37 37 36 34 33 33 34 33 32
7 6 4 3 4 4 3 2 2 3 3 2 1 2 5 6 9 11 11 11 12 12 13 14 15 16 17 17 18 18 19 19 19 20 20 20 19 19 19 19 19 18 18 18 19 19 19 19 19 19 20 20 21 22 22 23 23 23 24 24 24 26 26 27 28 29 30 29 27 26 28 31 29 26 31 32 32 35 36 35 35 36 34 31 31 32 31 29
7 5 4 4 4 4 2 3 3 3 2 2 1 3 6 8 10 11 10 11 12 12 13 14 15 16 17 17 17 18 19 19 19 20 19 20 20 20 20 19 19 20 20 20 20 20 20 20 20 21 21 22 22 23 23 24 24 24 25 25 25 26 26 27 27 27 29 28 26 25 26 30 28 24 28 32 35 38 36 35 36 37 36 35 32 31 30 28
6 5 4 4 4 3 3 4 4 3 2 2 2 4 7 9 10 10 10 11 11 12 13 14 15 16 16 17 17 18 19 19 20 20 20 20 20 20 20 20 20 20 20 20 21 21 21 21 21 22 22 23 23 23 24 24 24 25 25 26 26 27 27 27 27 28 29 28 28 28 27 30 29 25 25 29 35 39 38 37 39 39 38 37 35 32 29 28
6 5 4 4 4 4 5 4 4 3 3 2 3 6 8 10 10 10 10 10 11 12 13 14 15 15 16 16 17 18 19 19 19 19 19 20 20 20 21 21 21 21 20 21 21 21 22 22 22 22 23 23 23 24 24 24 24 25 27 28 29 30 31 30 30 31 31 31 31 30 30 31 28 25 25 28 34 38 38 39 40 41 39 37 35 33 31 31
6 5 5 5 5 5 5 4 4 3 3 3 4 7 9 10 10 9 9 10 11 12 13 14 15 15 16 16 18 18 19 19 19 19 19 20 20 21 22 22 22 22 22 22 22 22 22 21 22 23 23 24 24 24 25 24 24 25 27 28 30 32 33 33 32 32 33 33 32 32 32 32 29 26 27 32 37 37 38 39 39 39 38 36 34 33 33 34
6 5 5 5 5 5 5 4 4 4 3 3 5 8 9 9 9 9 9 10 11 12 13 14 14 15 16 17 17 18 18 18 18 19 19 20 21 21 22 22 22 22 23 23 23 23 23 23 23 24 24 24 25 26 26 26 25 25 27 29 30 32 34 34 34 35 35 35 34 33 34 33 31 28 26 32 38 37 36 35 35 37 38 37 37 35 35 37
6 5 6 6 6 5 5 5 4 4 4 4 6 8 9 9 9 8 9 10 11 12 12 13 14 15 15 16 17 17 17 18 18 19 20 20 21 21 22 23 23 23 23 24 24 23 24 25 25 25 25 25 25 26 27 28 27 27 28 29 30 31 33 34 35 35 37 38 36 33 34 33 31 27 23 28 35 33 31 30 31 35 39 41 43 43 43 42
6 6 6 6 6 6 5 5 5 4 4 5 7 8 9 9 8 8 9 10 11 12 12 13 14 15 15 16 16 16 17 18 18 20 20 21 22 22 23 24 24 25 25 25 26 25 25 25 26 26 27 26 26 27 27 28 29 29 29 30 31 31 33 35 36 36 37 41 40 36 36 35 31 25 21 24 28 26 25 26 29 35 41 45 48 49 48 46
6 7 7 6 6 6 6 6 5 5 5 6 8 8 9 8 8 8 9 11 11 11 12 13 14 14 14 15 16 16 17 18 19 20 21 22 23 23 24 25 25 26 27 27 27 28 27 26 25 27 28 28 28 27 28 29 30 30 30 31 32 33 34 36 38 38 39 43 43 40 39 37 34 29 23 20 22 24 24 27 33 40 45 47 48 49 48 48
7 7 7 6 6 6 6 6 6 6 6 7 8 8 8 8 8 8 10 11 11 11 12 13 14 14 14 15 16 17 18 19 20 22 23 23 24 25 25 26 27 27 28 28 29 29 30 28 26 26 28 29 29 29 29 29 30 31 32 32 33 35 36 38 39 40 42 45 47 45 42 39 35 32 27 22 24 28 31 35 41 45 47 48 47 48 48 48
8 7 7 6 6 6 6 6 6 6 7 8 8 8 8 8 8 9 10 11 11 11 12 13 14 14 14 16 17 18 19 20 22 24 24 25 26 26 27 28 29 29 29 30 31 31 32 32 29 27 28 29 30 30 31 31 31 32 33 34 35 36 38 40 40 41 44 47 51 51 48 42 35 33 32 31 31 34 37 40 44 46 46 47 48 48 48 47
8 7 7 7 7 7 7 7 7 7 8 9 9 8 8 8 9 10 10 11 11 11 12 13 14 14 15 17 18 19 21 22 24 25 26 27 28 29 29 29 30 31 31 31 32 33 33 34 33 30 30 31 31 31 33 33 32 33 33 35 36 37 39 41 42 42 44 48 51 55 57 48 36 35 38 38 37 39 41 43 45 46 47 47 48 47 47 46
8 8 7 7 7 7 7 8 8 8 9 10 9 8 8 9 10 10 11 12 12 12 13 14 14 15 16 18 19 20 22 23 25 27 28 29 30 31 31 31 31 33 33 33 34 35 36 37 36 34 32 33 33 33 34 34 35 35 35 36 37 38 40 42 44 44 45 48 49 55 62 52 36 37 41 40 40 41 43 46 47 47 48 47 47 47 46 46
8 8 7 7 7 8 8 9 9 9 10 10 9 9 9 10 11 11 12 12 12 13 14 15 16 17 18 19 21 22 24 25 26 28 30 31 32 33 34 33 33 35 36 35 35 37 38 39 39 37 35 35 35 36 36 36 38 38 37 38 40 41 42 43 47 47 48 50 49 54 63 53 38 39 43 42 43 44 46 49 50 49 50 49 49 48 48 48
7 8 7 8 8 8 9 9 10 10 11 11 10 10 10 10 11 12 13 13 14 14 15 16 17 18 20 21 23 25 27 28 28 29 32 33 34 35 36 36 36 37 38 38 38 39 40 41 42 42 39 38 37 37 38 38 40 41 40 40 42 43 45 46 48 50 52 53 51 56 65 56 46 45 47 46 47 48 50 53 52 51 52 51 51 51 51 51
7 7 8 8 8 9 9 10 10 11 12 12 11 11 11 12 13 13 14 15 15 16 17 18 19 21 22 24 25 26 29 31 32 32 34 35 36 37 38 38 39 39 40 41 41 41 42 43 44 45 44 43 41 40 41 43 44 44 43 42 44 45 47 49 50 52 55 53 51 59 65 58 52 52 52 51 53 54 55 56 55 55 54 53 54 54 55 56
7 8 8 9 9 10 10 11 11 12 13 13 12 12 12 13 14 14 15 16 17 18 19 19 21 23 24 27 28 28 30 34 35 36 37 38 39 39 39 41 42 41 42 43 44 44 45 44 45 46 47 47 45 44 45 47 48 48 47 46 46 47 49 51 52 55 56 52 54 64 65 59 56 56 55 55 57 59 60 60 59 59 59 58 58 58 59 59
8 9 9 9 10 11 11 12 12 13 13 13 13 13 14 15 16 16 17 18 19 20 21 22 24 26 27 29 31 31 32 35 38 39 40 41 42 41 41 43 44 44 44 45 46 46 48 47 45 47 49 48 47 45 46 49 50 51 50 48 48 49 51 53 55 57 55 53 59 64 63 62 61 57 56 58 60 62 62 61 61 62 62 62 62 62 61 62
9 9 9 9 10 11 12 13 13 13 13 14 14 14 15 16 17 19 19 20 21 23 24 24 26 28 30 32 34 34 35 37 40 42 43 44 44 44 44 45 46 46 46 47 47 48 51 51 48 48 51 50 48 47 47 50 52 53 52 51 49 50 53 56 59 58 55 56 63 62 60 65 65 59 58 61 63 65 64 63 64 63 63 64 65 64 63 63
10 10 10 11 11 12 13 14 14 14 14 15 15 16 17 18 19 21 21 22 23 25 27 27 27 30 33 35 36 37 38 40 43 44 45 46 46 46 47 47 47 48 48 49 49 50 53 54 51 51 53 52 50 49 50 52 54 55 56 53 49 50 55 59 60 58 55 59 64 61 60 66 66 61 60 62 65 66 66 65 66 65 65 67 66 66 65 64
10 10 11 11 12 13 14 14 14 14 15 16 16 17 19 20 21 23 24 25 25 27 30 31 31 34 36 37 39 40 40 43 46 48 49 49 49 49 50 49 49 49 49 51 51 52 54 56 53 53 56 55 53 51 53 55 57 59 60 56 52 53 56 58 60 58 57 61 63 61 63 67 65 61 61 63 66 67 67 67 66 66 67 68 67 67 66 66
11 11 11 12 13 15 15 15 16 15 16 17 17 19 21 22 23 26 27 28 29 30 32 33 35 38 39 39 41 42 42 46 49 51 52 52 52 53 53 53 52 52 52 52 53 54 56 56 55 55 58 59 55 54 56 58 60 63 64 59 55 54 54 56 59 59 59 61 62 62 67 68 63 60 63 66 67 68 68 68 67 68 69 69 69 68 68 69
12 12 13 13 14 16 16 17 18 17 17 19 21 21 23 24 26 29 30 31 32 34 36 37 38 41 42 43 44 44 45 49 51 52 54 55 55 56 56 56 55 55 55 55 55 56 57 58 57 57 60 60 58 59 61 61 64 68 67 61 57 56 56 58 60 60 61 62 63 65 68 68 64 63 66 67 68 70 69 69 70 71 70 70 70 70 70 71
13 14 15 15 15 17 17 18 19 19 19 22 24 24 26 27 29 32 34 34 34 36 38 40 42 44 46 46 47 48 49 52 54 55 56 57 58 59 59 58 58 57 56 57 58 58 58 59 58 58 61 61 60 63 65 65 70 73 68 63 61 61 61 62 63 63 63 62 64 66 67 67 66 67 68 69 69 70 69 70 71 71 71 71 71 71 71 71
Wind_Direction
213 219 222 224 225 229 238 244 231 222 219 221 225 228 235 244 248 251 254 258 262 263 261 260 262 262 259 257 256 256 258 260 256 252 250 250 251 250 250 252 254 256 258 259 260 259 258 259 264 269 271 273 274 276 278 280 282 282 282 279 277 278 282 283 282 279 278 279 279 278 278 279 279 279 278 277 278 279 279 279 279 280 279 278 277 276 276 276
210 215 220 223 225 227 230 228 208 187 183 184 186 191 202 209 216 225 237 248 256 262 263 264 266 263 259 260 263 266 271 271 266 265 265 264 261 258 258 260 263 264 263 264 265 267 268 269 274 277 278 278 279 281 281 283 283 282 282 280 281 284 284 283 283 283 281 280 280 280 280 279 280 280 279 278 278 278 278 278 279 279 278 278 279 279 279 278
204 212 218 222 224 224 222 215 192 167 157 155 155 150 147 141 130 130 136 149 116 80 59 282 273 269 265 270 275 280 292 289 277 276 278 278 278 275 274 276 277 278 276 276 277 280 284 287 287 285 284 282 281 282 281 282 282 280 281 281 283 284 282 283 283 282 282 282 281 281 281 281 281 280 279 280 280 279 278 278 278 277 277 278 279 278 278 277
196 206 213 219 225 226 225 215 194 188 198 211 184 150 134 118 109 194 203 170 57 28 357 274 275 283 286 292 293 293 297 291 285 284 283 287 290 289 287 285 284 284 284 285 286 288 288 289 287 285 283 282 281 281 281 282 280 279 279 280 283 282 280 282 282 281 282 282 281 281 281 281 280 279 280 281 280 279 279 279 277 278 278 278 277 277 277 277
187 196 205 213 221 227 231 228 215 210 218 227 225 209 339 330 308 291 283 274 271 270 266 272 275 280 284 282 281 280 281 281 282 283 283 284 285 286 285 285 285 285 286 286 286 286 286 285 284 282 281 281 281 280 280 280 279 279 280 282 283 281 280 280 280 281 281 281 281 280 280 280 279 279 279 279 278 278 278 278 278 279 279 277 277 277 278 278
162 179 197 210 217 222 227 231 230 230 230 227 220 217 260 332 314 291 279 273 272 275 280 289 290 290 289 286 284 281 282 285 288 287 285 285 286 287 287 286 286 285 284 284 284 283 283 283 281 281 280 280 280 280 280 279 279 280 281 282 280 279 280 280 279 280 280 281 281 280 279 279 278 278 278 278 278 277 277 277 277 277 277 277 278 278 278 278
119 141 187 209 216 217 219 222 230 236 235 229 219 212 250 326 318 286 270 273 282 291 296 301 300 299 297 295 294 290 289 291 290 288 286 285 286 287 287 288 287 286 284 283 283 282 281 281 280 280 280 281 282 282 281 279 279 281 282 281 278 279 280 280 279 280 280 281 280 280 279 279 279 279 279 279 279 279 278 278 278 278 278 278 279 278 278 278
82 76 70 251 240 229 221 220 226 235 238 237 232 217 243 272 283 285 285 292 298 301 300 300 299 298 298 298 299 297 297 296 293 290 290 288 288 288 287 287 286 286 285 284 283 282 281 281 280 280 280 282 283 283 281 279 279 282 282 279 278 280 280 280 280 279 280 280 280 279 279 279 279 279 280 281 281 281 280 280 281 281 281 280 280 279 279 279
58 48 32 14 334 276 245 230 227 234 241 251 267 260 256 266 279 287 293 298 300 300 300 300 300 298 298 299 298 296 296 295 293 294 295 295 295 294 292 291 289 288 286 286 285 285 284 283 282 282 283 284 284 283 282 281 282 282 280 279 279 280 280 280 280 280 280 279 279 279 279 280 280 280 281 282 282 281 281 282 282 282 281 280 280 280 280 279
44 33 21 10 348 305 266 246 236 238 251 269 287 277 270 274 284 292 297 300 299 299 301 301 301 301 300 300 297 294 293 290 290 291 293 294 296 296 296 295 293 291 290 289 289 288 288 286 286 285 285 285 283 282 282 283 284 281 280 280 280 280 280 280 280 280 280 279 280 280 280 281 281 282 282 282 282 282 283 282 281 281 280 280 280 280 280 279
34 23 12 2 352 311 259 247 244 252 279 294 287 280 276 280 288 295 299 301 302 303 305 305 304 303 302 303 301 298 296 293 292 291 290 291 292 292 293 292 291 289 288 287 287 287 287 286 286 286 285 285 283 282 282 282 282 282 281 281 281 281 281 281 281 281 281 281 281 281 282 283 284 284 284 284 285 285 284 282 282 282 282 282 282 281 281 280
25 15 5 356 353 304 240 237 252 284 303 298 291 285 284 288 293 297 301 303 305 307 307 306 304 304 305 306 306 304 303 303 303 301 299 296 294 292 291 289 288 286 286 286 286 286 286 286 286 286 286 285 284 283 284 283 283 283 283 283 283 282 282 283 284 283 283 283 283 283 284 284 285 285 285 287 287 285 283 283 283 283 283 283 282 282 281 281
18 9 360 352 351 327 230 239 293 324 307 296 293 291 292 295 298 302 305 306 307 307 306 305 305 306 308 311 311 309 309 310 309 308 306 304 302 301 299 296 293 291 291 291 291 291 290 289 288 287 286 285 284 284 284 284 284 284 285 285 284 283 284 285 284 284 284 284 284 284 285 285 285 286 287 286 284 282 282 282 283 283 283 282 281 281 281 281
11 3 355 349 347 341 313 335 356 331 304 296 296 298 301 302 304 305 306 306 307 307 307 309 310 312 314 316 315 313 312 311 311 311 310 310 312 311 309 306 302 299 297 296 296 295 293 292 291 289 288 287 286 286 286 286 286 286 286 286 286 286 287 286 285 285 286 287 287 287 288 288 288 288 288 285 283 282 282 283 283 283 283 282 282 282 282 282
4 356 351 348 340 336 350 360 358 339 316 308 307 307 305 304 303 304 304 307 308 311 313 314 315 316 317 318 317 316 316 317 318 318 317 317 317 316 313 310 306 303 300 299 298 297 295 294 292 291 290 290 290 289 289 289 289 289 289 289 290 290 290 289 288 289 290 290 289 289 291 291 291 290 288 286 286 285 285 285 286 285 284 285 285 285 285 284
356 349 348 345 329 336 355 356 350 339 325 315 313 309 305 302 302 304 308 312 316 317 318 318 319 320 323 326 327 328 328 326 323 321 318 317 316 315 313 311 307 304 302 300 299 298 297 295 294 293 293 292 292 292 292 291 291 291 291 294 295 294 293 293 292 293 293 291 290 291 293 294 294 291 289 288 287 286 288 289 288 287 287 287 287 287 286 285
347 343 345 341 327 341 350 347 342 330 322 317 313 308 304 303 305 313 317 318 320 320 322 327 332 335 339 339 338 337 333 328 324 320 318 316 315 314 312 309 307 303 301 299 297 297 296 295 295 294 294 294 293 293 293 294 294 292 292 293 294 294 296 295 295 296 295 291 291 293 293 295 296 293 291 291 289 289 291 291 289 288 288 288 288 287 286 285
340 338 340 340 332 339 341 338 332 325 321 316 312 308 306 309 316 321 321 321 324 331 342 351 352 348 343 338 335 333 330 326 324 321 318 316 313 311 308 306 304 301 300 299 297 296 296 294 294 294 294 294 295 294 295 296 297 296 296 295 294 294 294 295 296 296 293 291 293 294 293 295 295 293 292 291 292 293 292 290 289 289 288 288 287 287 287 287
335 333 337 339 332 331 333 330 325 322 317 313 312 313 315 318 321 321 322 334 353 5 7 1 355 347 339 335 332 330 328 325 322 319 317 314 310 308 306 305 303 302 301 300 298 298 296 295 296 295 295 296 296 296 296 297 297 297 298 298 298 296 295 296 297 296 294 293 295 293 293 296 295 292 292 292 292 292 291 289 289 288 287 287 287 287 288 288
329 330 334 335 326 324 325 321 320 317 312 314 321 323 323 322 323 334 8 29 25 12 359 352 348 342 337 333 330 328 325 322 319 317 315 312 310 308 307 306 304 303 302 301 300 299 299 298 298 297 297 297 297 296 297 296 296 296 296 297 297 297 296 297 297 296 295 295 296 294 293 296 294 292 292 292 291 290 288 287 287 287 286 287 287 287 288 290
325 327 330 325 317 318 318 316 315 311 309 322 329 326 326 329 349 34 42 29 15 1 350 343 339 337 333 328 327 324 322 320 318 316 314 312 310 308 308 306 305 304 303 301 301 300 300 301 300 298 298 298 297 297 297 296 296 296 295 296 295 296 297 296 296 296 295 295 297 295 295 297 294 293 293 291 291 289 286 286 285 286 287 288 289 290 291 292
322 324 323 315 314 314 314 314 310 303 310 325 328 332 348 22 42 40 25 14 2 352 344 337 334 333 330 327 327 325 322 321 318 315 314 312 310 309 309 307 306 305 304 302 302 301 301 301 300 299 299 299 299 298 297 297 296 295 295 295 295 296 296 295 296 296 295 296 297 296 296 298 295 294 292 288 288 288 286 287 288 289 291 292 293 295 295 295
320 320 314 308 312 312 311 309 301 298 313 324 333 10 60 53 41 26 15 3 350 344 339 333 332 331 329 328 328 325 322 320 317 316 315 313 312 311 309 308 307 306 304 304 303 302 302 302 301 301 301 300 300 299 298 297 296 296 296 296 296 297 296 297 297 297 296 297 299 298 298 301 299 296 292 288 289 288 288 290 292 295 296 295 296 297 298 299
317 313 304 306 310 307 304 299 295 303 315 326 18 79 64 41 30 17 3 352 342 338 334 332 331 331 330 328 327 324 322 320 320 318 317 315 314 312 310 308 307 306 305 305 304 305 305 305 304 304 303 303 302 301 301 300 300 300 299 299 300 300 300 301 301 301 300 301 302 300 300 303 299 292 288 287 287 288 290 292 294 297 298 298 299 299 301 302
311 303 298 305 304 298 294 292 298 304 309 6 100 82 50 26 18 3 348 343 339 334 333 333 333 333 331 329 329 327 325 324 323 321 320 319 317 315 313 311 310 309 309 309 309 309 309 309 309 308 307 308 308 309 308 308 309 309 306 305 306 305 305 306 305 306 304 303 305 301 299 302 295 288 284 283 283 285 289 293 296 298 299 300 301 301 302 302
301 292 297 301 293 287 290 295 296 290 254 131 105 61 36 11 360 349 339 337 336 334 334 334 334 334 333 333 332 331 330 330 329 328 327 326 325 323 321 320 319 318 318 317 317 317 315 315 315 314 315 316 317 317 317 317 317 317 315 312 311 309 308 306 305 306 304 305 308 305 302 301 296 291 286 281 281 283 288 292 297 301 303 304 304 303 303 303
290 290 295 291 281 285 294 295 283 232 169 142 106 42 13 351 346 341 336 336 336 334 334 336 337 337 337 336 336 336 335 336 336 336 336 335 334 333 332 332 330 328 328 326 326 325 323 323 322 322 322 322 322 322 322 322 321 320 318 315 312 310 308 306 305 306 306 308 310 308 303 301 301 297 289 285 285 286 288 292 297 301 304 306 306 305 304 304
285 289 286 278 283 294 296 285 233 178 166 162 124 25 355 340 339 337 335 337 337 335 336 339 340 341 341 340 340 340 340 341 341 341 341 340 340 340 340 339 337 336 335 333 334 332 330 330 329 328 327 326 326 325 325 325 322 321 318 316 314 312 311 309 309 309 308 309 311 309 304 302 305 302 294 292 292 290 292 297 300 301 302 304 305 304 304 303
280 279 272 281 294 295 286 241 185 175 176 183 191 348 345 338 337 336 336 337 337 338 341 343 344 344 343 343 343 343 344 345 345 344 344 343 344 343 342 342 341 340 339 338 339 338 336 335 333 332 331 330 329 327 327 326 324 322 320 320 318 315 315 314 313 312 310 311 311 309 304 301 305 307 300 298 296 292 294 299 301 302 304 306 306 305 305 304
270 263 267 290 291 280 249 197 184 186 195 204 242 331 340 336 335 336 336 337 338 342 345 346 346 346 344 345 346 346 347 348 347 347 347 347 347 346 345 345 343 343 342 341 341 340 338 337 336 334 333 332 331 329 328 327 326 324 322 321 319 316 315 314 313 310 307 307 306 305 303 300 305 312 307 305 302 297 298 302 303 304 306 308 308 307 307 307
256 252 272 283 269 242 209 193 196 203 213 229 291 332 336 333 334 335 336 337 340 345 348 347 346 345 345 346 347 348 349 349 349 349 349 350 350 349 349 348 348 347 346 344 344 342 341 339 338 337 335 333 332 331 329 329 327 325 322 320 318 315 312 311 310 307 306 307 306 307 307 304 308 314 312 310 305 300 300 303 303 304 306 308 309 306 305 305
242 253 269 258 235 216 201 201 208 216 225 253 309 331 333 331 332 335 337 340 344 347 347 346 345 344 345 346 348 349 350 350 351 352 353 353 352 352 352 351 350 349 348 347 346 346 345 343 341 340 338 335 334 334 332 332 331 327 325 322 320 318 315 315 316 313 312 312 311 312 309 306 310 314 313 307 300 298 301 302 302 304 306 307 306 304 303 304
239 254 251 233 222 210 206 213 218 226 244 275 311 329 331 330 331 334 338 342 345 346 345 345 344 344 345 348 349 350 351 352 354 354 356 355 354 354 353 353 352 350 350 349 348 348 346 345 344 343 342 339 337 336 334 334 334 330 328 326 325 324 321 321 321 318 316 314 314 313 309 307 309 314 315 305 298 300 303 303 303 303 302 302 301 301 302 304
243 246 233 222 216 212 217 224 229 240 260 286 316 327 327 328 331 333 337 343 344 344 344 343 344 344 346 349 349 351 353 353 355 356 357 356 355 354 353 353 352 350 351 349 348 348 345 345 346 344 343 341 339 338 335 335 336 334 331 330 329 327 324 324 323 321 318 315 315 314 311 311 311 316 320 306 300 305 306 306 307 304 302 301 302 303 305 306
241 228 219 215 214 219 226 231 236 250 273 300 320 324 324 327 330 332 337 341 341 341 341 342 344 345 346 348 349 350 352 352 354 354 353 354 352 350 350 350 349 348 348 347 345 345 344 343 343 342 341 340 338 337 335 334 335 335 333 331 330 327 325 324 323 322 319 315 316 315 312 313 314 318 322 308 303 308 309 311 310 305 305 306 307 309 309 308
228 216 214 215 219 226 230 235 244 259 282 306 319 321 322 324 327 332 335 338 338 338 339 341 344 344 344 347 348 348 350 349 351 350 349 350 348 347 347 346 345 345 343 342 341 340 341 341 340 339 337 336 336 335 333 331 331 332 332 330 328 326 324 323 321 322 319 315 316 317 315 317 321 326 325 308 300 300 302 305 303 299 301 303 305 306 306 305
215 213 215 219 227 230 232 241 253 267 288 308 316 318 318 319 323 329 332 334 335 334 337 339 341 341 341 343 344 345 347 345 346 347 345 345 344 343 343 342 342 340 338 338 337 335 336 337 338 335 332 332 332 331 331 329 327 328 329 328 326 324 322 321 320 321 319 315 315 318 319 322 330 337 331 308 289 284 286 291 293 294 296 298 300 301 301 301
212 214 219 226 232 236 241 251 264 276 291 306 314 315 313 316 319 324 328 331 331 331 334 335 336 337 336 338 340 340 342 342 342 343 342 341 340 339 339 338 337 336 334 333 332 331 330 332 334 331 328 328 328 328 327 324 324 325 325 324 323 321 320 319 318 319 318 315 315 317 319 322 333 340 333 312 292 286 287 290 293 296 298 299 300 301 301 302
214 216 225 234 236 242 249 259 270 280 291 303 310 309 308 312 315 320 325 327 327 328 329 329 331 331 331 333 335 336 338 339 339 339 338 337 336 336 335 333 332 332 330 329 328 327 325 325 328 328 325 323 324 324 322 321 322 321 321 322 320 319 317 315 316 317 316 315 315 316 316 319 332 338 329 319 311 306 303 302 301 301 302 303 304 304 304 304
217 223 236 241 244 249 255 264 273 280 291 301 306 303 302 306 311 316 320 322 323 323 323 324 324 324 326 328 331 332 334 335 336 336 335 334 332 332 331 329 327 327 326 325 323 322 321 320 321 324 323 320 321 320 318 319 318 317 319 318 316 316 315 313 314 315 314 313 314 315 312 315 329 334 326 322 320 317 313 309 306 305 305 306 306 306 306 304
223 235 244 247 252 258 264 271 275 282 292 300 300 298 298 302 308 313 316 318 318 317 319 320 319 319 321 324 327 328 329 332 332 331 332 331 329 328 328 326 324 323 323 322 319 318 317 316 317 320 319 318 318 317 316 316 314 314 316 314 313 313 312 311 312 312 311 310 312 313 309 312 328 330 322 321 319 316 312 308 306 307 307 308 308 307 306 304
233 243 249 254 259 264 271 277 279 285 293 297 297 294 294 300 306 309 312 313 312 312 313 314 315 316 317 320 324 325 326 328 329 328 328 328 326 324 324 323 321 320 319 318 316 314 313 313 314 316 316 315 316 315 315 314 311 311 312 312 312 311 310 310 309 310 309 307 311 311 304 310 330 326 317 318 316 313 310 307 307 308 309 309 308 306 306 305
243 250 256 260 263 267 275 280 283 288 293 295 293 290 292 300 305 306 308 309 307 307 309 310 311 312 313 316 319 321 321 322 325 326 324 324 323 321 321 321 319 317 316 315 314 312 310 311 311 312 313 313 311 312 313 310 307 307 309 310 308 309 310 308 307 308 307 308 314 309 301 312 329 322 315 317 314 311 309 307 308 310 309 309 307 305 305 304
252 259 266 269 270 272 277 282 287 290 293 294 291 289 292 298 301 303 304 305 304 303 305 307 308 309 311 312 315 318 318 318 321 322 322 321 320 318 318 318 316 315 314 312 311 310 308 308 309 310 311 310 311 313 311 308 306 306 308 307 306 307 306 305 306 305 304 311 315 303 301 315 324 317 315 316 313 310 308 308 310 311 310 310 307 306 304 304
260 266 271 275 276 276 278 284 289 291 293 294 291 291 294 295 298 300 301 302 301 300 302 306 306 307 309 310 311 315 316 315 316 318 319 318 316 316 316 314 313 313 312 310 309 309 306 305 307 308 307 308 310 312 310 307 306 305 306 305 304 304 303 303 302 299 303 313 309 299 303 314 315 312 314 314 311 309 308 309 310 310 310 310 309 307 307 306
266 271 274 276 277 279 282 287 290 291 294 294 291 291 293 296 298 299 299 299 299 299 302 304 305 306 306 307 309 312 314 313 313 315 316 314 315 316 314 311 311 311 310 308 308 307 305 304 305 304 303 304 307 307 306 304 302 302 302 302 301 302 301 299 296 296 304 307 300 299 306 310 308 310 313 311 308 306 307 308 309 309 309 309 308 308 308 307
268 272 275 277 278 282 286 289 291 292 294 292 290 290 293 295 297 297 298 299 299 299 300 303 305 304 303 304 307 310 311 311 310 311 311 311 313 313 311 310 310 309 308 307 306 305 304 304 305 303 302 303 304 304 303 300 299 299 299 298 300 300 299 297 296 300 304 299 295 302 306 303 304 309 310 308 305 304 306 307 307 307 307 306 307 307 308 306
269 272 277 280 282 285 289 290 291 292 292 291 291 291 292 294 296 296 297 298 300 299 298 300 303 300 300 303 305 307 309 309 308 308 308 310 311 310 309 309 308 307 306 304 304 303 302 303 305 303 301 302 301 301 301 298 298 298 297 297 299 298 297 298 299 302 301 294 295 302 300 297 301 306 306 303 301 302 304 304 304 305 305 304 305 306 306 304
273 276 279 282 284 286 288 289 289 291 292 291 291 289 290 293 295 295 295 297 299 298 297 300 300 297 298 301 302 305 308 307 305 306 308 309 309 308 308 308 307 306 304 303 303 301 299 302 304 302 300 301 301 301 300 297 297 297 296 297 300 299 299 299 299 300 297 293 296 298 295 296 301 302 299 298 298 300 301 301 302 302 301 301 303 304 304 302
278 281 284 286 288 289 290 290 290 291 291 289 288 287 289 293 294 293 294 296 298 298 298 299 298 296 298 299 300 304 306 303 303 305 307 307 308 308 308 307 307 305 303 303 302 299 298 300 301 300 299 300 301 300 297 297 298 296 295 298 302 302 300 298 298 299 296 294 295 294 292 296 300 298 295 296 297 298 299 300 301 300 300 301 303 304 303 302
282 286 288 289 291 292 294 294 293 293 290 288 289 290 291 293 293 293 295 296 297 298 298 298 297 297 298 299 300 303 302 301 302 305 305 305 306 307 306 306 306 304 304 303 301 299 298 299 300 299 297 299 301 299 297 298 296 294 297 303 304 301 299 299 298 297 295 294 293 292 292 296 298 295 294 296 297 297 299 300 300 300 301 303 305 304 303 303
287 288 289 290 292 293 295 296 297 296 293 291 292 294 294 294 294 295 295 295 296 297 297 297 297 297 298 299 300 301 300 300 302 303 303 304 305 305 305 305 304 304 303 302 299 299 298 298 299 297 295 297 299 297 298 298 295 296 302 305 302 300 300 299 298 296 295 293 291 291 293 295 295 294 295 296 296 297 299 300 300 301 302 303 304 304 303 303